Powrót do katalogu

STARLINK-6162

AktywnyŁącznośćVLEO
NORAD 57131·PAYLOAD·🇺🇸 United States

Wystrzelony Jun 23, 2023 z Cape Canaveral Space Force Station

Loading…

Następne Przeloty (najbliższe 24 godziny)

TLE

ŚwieżeSource: CelesTrak SupGP

Epoka: Sep 15, 2026, 02:30 UTC

1 57131C 23090AG  26258.10465278 -.00006494  00000+0 -23521-3 0  2585
2 57131  43.0025 273.3601 0001340 302.0462 112.2618 15.27580449    17

Śledź STARLINK-6162 w czasie rzeczywistym z AllMySat

Download on the App Store